User: anonymous   Login
Location: Peebles
(55.6412°N, 3.1714°W)
Time: 07:23:45
(UTC+00:00)
Language:

Cosmos 1867 - Orbit

View from above orbital plane
View from above orbital plane
View from above satellite
View from above satellite

Ground track
Ground track

The orbit data is extracted from the following two-line orbital elements,

1 18187U 87060A   21337.13412954 -.00000097  00000-0  11637-5 0  9991
2 18187  65.0111 347.0963 0020923 267.5476  92.3213 14.31128991797244
Epoch (UTC): 03 December 2021 03:13:08
Eccentricity: 0.0020923
inclination: 65.0111°
perigee height: 773 km
apogee height: 803 km
right ascension of ascending node: 347.0963°
argument of perigee: 267.5476°
revolutions per day: 14.31128991
mean anomaly at epoch: 92.3213°
orbit number at epoch: 79724

The dashed part of the orbit path shows where the satellite is in the earth's shadow,  

DLR